Weather History for New Orleans Lakefront, LA

Change the Weather History Date:

Sunday, October 7, 2012

  Actual Average Record
Temperature  
Mean Temperature 65 °F 74 °F  
Max Temperature 69 °F 82 °F 92 °F (1990)
Min Temperature 60 °F 66 °F 45 °F (1991)
Degree Days  
Heating Degree Days 0 0  
Month to date heating degree days 0 0  
Since 1 July heating degree days 0 0  
Cooling Degree Days 0 9  
Month to date cooling degree days 52 71  
Year to date cooling degree days 3193 2760  
Growing Degree Days 17 (Base 50)    
Moisture  
Dew Point 58 °F    
Average Humidity 78    
Maximum Humidity 87    
Minimum Humidity 68    
Precipitation  
Precipitation 0.00 in 0.11 in 1.65 in (2008)
Month to date precipitation T 0.79  
Year to date precipitation 60.25 49.97  
Snow  
Snow 0.00 in - - ()
Month to date snowfall 0.0  
Since 1 July snowfall 0.0  
Since 1 September snowfall 0.0  
Snow Depth 0.00 in    
Sea Level Pressure  
Sea Level Pressure 30.06 in    
Wind  
Wind Speed 13 mph (North)    
Max Wind Speed 18 mph    
Max Gust Speed 23 mph    
Visibility 10 miles    
Events      
T = Trace of Precipitation, MM = Missing Value Source: NWS Daily Summary

Daily Weather History Graph

Daily Weather History Graph

Search for Another Location

Airport:

Trip Planner

Search our weather history database for the weather conditions in past years. The results will help you decide how hot, cold, wet, or windy it might be!

Date:

Astronomy

Oct. 07, 2012 Rise Set
Actual Time 6:57 AM CDT 6:37 PM CDT
Civil Twilight 6:33 AM CDT 7:01 PM CDT
Nautical Twilight 6:05 AM CDT 7:29 PM CDT
Astronomical Twilight 5:37 AM CDT 7:57 PM CDT
Moon No Moon Rise 1:17 PM CDT (10/7)
Length of Visible Light 12h 28m
Length of Day
11h 40m
Waning Gibbous, 56% of the Moon is Illuminated
Oct 7
Waning Gibbous
Oct 8
Last Quarter
Oct 15
New
Oct 21
First Quarter
Oct 29
Full

Hourly Weather History & Observations

Time (CDT) Temp. Dew Point Humidity Pressure Visibility Wind Dir Wind Speed Gust Speed Precip Events Conditions
12:38 AM 73.4 °F 64.4 °F 73% 30.03 in 9.0 mi NNE 13.8 mph - N/A   Overcast
12:53 AM 70.0 °F 64.0 °F 81% 30.01 in 9.0 mi NNE 12.7 mph - N/A   Overcast
1:53 AM 68.0 °F 63.0 °F 84% 30.03 in 10.0 mi North 13.8 mph - N/A   Overcast
2:53 AM 66.9 °F 62.1 °F 84% 30.02 in 10.0 mi North 13.8 mph - N/A   Overcast
3:53 AM 66.9 °F 60.1 °F 79% 30.03 in 10.0 mi NNE 17.3 mph - N/A   Overcast
4:14 AM 66.2 °F 60.8 °F 83% 30.05 in 10.0 mi North 16.1 mph 21.9 mph N/A   Overcast
4:53 AM 66.0 °F 59.0 °F 78% 30.04 in 10.0 mi North 17.3 mph - N/A   Overcast
5:01 AM 66.2 °F 59.0 °F 78% 30.05 in 10.0 mi North 16.1 mph - N/A   Overcast
5:53 AM 66.0 °F 57.9 °F 75% 30.05 in 10.0 mi North 13.8 mph - N/A   Overcast
6:53 AM 66.0 °F 57.9 °F 75% 30.06 in 10.0 mi North 16.1 mph 21.9 mph N/A   Overcast
7:44 AM 66.2 °F 57.2 °F 73% 30.10 in 10.0 mi NNE 15.0 mph - N/A   Overcast
7:53 AM 64.9 °F 57.9 °F 78% 30.08 in 10.0 mi North 13.8 mph - N/A   Overcast
8:53 AM 66.0 °F 57.9 °F 75% 30.09 in 10.0 mi North 15.0 mph - N/A   Overcast
9:53 AM 66.0 °F 57.9 °F 75% 30.10 in 10.0 mi North 12.7 mph - N/A   Overcast
10:53 AM 66.9 °F 57.0 °F 70% 30.10 in 10.0 mi North 10.4 mph - N/A   Overcast
11:53 AM 69.1 °F 57.9 °F 68% 30.10 in 10.0 mi North 12.7 mph - N/A   Overcast
12:53 PM 69.1 °F 57.9 °F 68% 30.08 in 9.0 mi North 15.0 mph - N/A   Overcast
1:26 PM 69.8 °F 57.2 °F 64% 30.09 in 10.0 mi NNW 15.0 mph - N/A   Overcast
1:53 PM 71.1 °F 57.9 °F 63% 30.06 in 10.0 mi North 13.8 mph - N/A   Mostly Cloudy
2:34 PM 71.6 °F 57.2 °F 60% 30.06 in 10.0 mi NNW 15.0 mph - N/A   Scattered Clouds
2:53 PM 72.0 °F 57.9 °F 61% 30.04 in 10.0 mi North 17.3 mph - N/A   Partly Cloudy
3:53 PM 70.0 °F 57.0 °F 63% 30.03 in 10.0 mi North 16.1 mph - N/A   Scattered Clouds
4:53 PM 66.0 °F 55.9 °F 70% 30.02 in 10.0 mi NNE 15.0 mph - N/A   Partly Cloudy
5:53 PM 66.0 °F 55.9 °F 70% 30.03 in 10.0 mi North 15.0 mph - N/A   Clear
6:53 PM 64.4 °F 55.4 °F 73% 30.07 in 10.0 mi NNE 17.3 mph - N/A   Scattered Clouds
7:53 PM 64.9 °F 55.9 °F 73% 30.07 in 10.0 mi NNE 15.0 mph - N/A   Clear
8:53 PM 63.0 °F 55.0 °F 75% 30.09 in 10.0 mi North 17.3 mph - N/A   Clear
9:53 PM 61.0 °F 55.0 °F 81% 30.10 in 10.0 mi NNE 19.6 mph - N/A   Clear
10:53 PM 61.0 °F 54.0 °F 78% 30.09 in 10.0 mi NE 19.6 mph - N/A   Partly Cloudy
11:53 PM 62.1 °F 54.0 °F 75% 30.08 in 10.0 mi NE 19.6 mph - N/A   Clear